Aérodrome :
LOGIN :

S'inscrire | Disclaimer

   EN    FR    IT 

 










Légende :    VFR   VFR Marginal   IFR   IFR Intensif   IFR Très Intensif
Visi : 
Plafond : 
>= 8 km
>= 3000ft
5 à 8 km
1000 à 3000 ft
1500m à 5 km
500 à 1000 ft
800 à 1500m
200 à 500 ft
< 800m
< 200 ft
Symboles :   Orages  Brouillard  Fortes neiges  Fortes précipitations  Vent > 20 kt
SIGMETs :   Divers  Orages  Givrage  Turbulence  Onde Orograph.  Cendres Volcan.







- Altitude de l'aérodrome : 40 ft
- Code IATA : RMI


LIPR - Federico Fellini Int. Rimini

DERNIER METAR :
  • 270745Z 06003KT 9999 FEW020 19/16 Q1014

METARs EXPIRÉS :
  • 270715Z 08001KT 9999 FEW007 18/16 Q1014
  • 270645Z 00000KT 9999 BKN006 17/15 Q1014
  • 270615Z 21002KT 9999 BKN004 SCT060 15/14 Q1014
  • 270545Z 00000KT 9999 BKN007 14/12 Q1013
  • 270515Z 00000KT 9999 SCT010 14/12 Q1013

TAF TAF LIPR
Valide du 27 à 06h jusqu'au 27 à 15h UTC


270500Z 2706/2715 VRB05KT 9999 SCT020
BECMG 2710/2712 07010KT
Pas de NOTAMs connus pour ce terrain.



MET'MAP, la Météo Aéronautique d'un coup d'oeil ! - Copyright ORBIFLY Décembre 2007 - Disclaimer

ORBIFLY MET'MAP TEAM :

Programmation & Développement : Alexandra Zaïnal
Conception & Développement : Baudouin d'Aumeries
Co-Programmation & Développement : Marc-Olivier Méhu
Soutien technique & logistique : Manuel Goepfert

Contact : metmap@orbifly.com




SOURCES & CREDITS :

   NOAA